Temp
46 39 35 38 42 43 44 41 40 41 48 44 43 43 51 52 48 49 50 50 52 54 62 61 63 63 63 62 64 66 64 65 65 63 63 62 62 63 63 64 64 64 64 64
40 34 41 45 46 45 42 39 36 43 47 44 41 41 46 49 48 51 53 51 52 52 56 59 60 60 60 65 64 65 65 65 65 65 64 62 63 62 64 64 64 65 65 64
36 41 46 44 42 41 39 37 36 40 43 43 38 38 41 48 48 51 51 52 53 54 56 57 58 59 58 58 61 63 64 64 65 65 62 60 61 59 63 63 64 63 64 64
39 44 43 40 39 42 36 42 43 42 40 33 38 32 36 42 44 46 52 52 53 55 56 58 58 57 57 57 57 59 60 60 61 62 61 61 62 60 59 61 63 63 63 63
35 37 38 37 39 44 39 44 42 42 37 33 30 27 32 36 39 43 46 51 55 59 60 56 56 57 57 55 54 56 57 56 57 58 59 60 59 60 59 59 60 60 60 61
40 45 43 40 44 46 46 41 39 36 35 26 33 31 30 37 41 45 49 53 55 53 51 51 53 53 50 50 51 51 53 52 53 55 55 56 56 56 56 57 57 56 54 55
37 37 41 43 38 41 40 36 20 19 15 22 30 30 41 41 45 47 51 53 52 52 50 50 50 48 48 48 48 50 50 48 49 50 51 52 53 54 55 56 55 51 50 50
29 27 38 43 39 36 38 39 25 17 17 22 30 28 34 44 51 52 51 51 51 51 49 48 48 47 46 47 47 47 47 47 47 47 47 47 48 47 47 48 48 47 48 50
28 29 41 42 44 45 36 33 40 30 23 21 26 30 39 43 44 46 48 51 52 49 47 46 45 46 44 43 44 45 45 45 45 45 45 45 46 46 45 45 46 47 47 51
34 27 39 41 44 45 41 44 32 29 11 10 25 26 30 38 43 46 46 48 49 46 46 45 43 42 42 43 42 42 43 43 42 42 43 43 43 44 45 45 44 45 46 48
36 31 31 38 36 37 36 35 36 35 27 21 18 27 36 40 44 45 47 47 48 46 44 42 41 41 41 40 40 40 40 39 39 40 39 40 40 41 41 42 44 45 45 46
36 32 28 31 38 43 44 40 40 31 27 30 28 26 40 42 41 41 46 48 46 44 42 41 41 40 39 39 38 38 38 38 37 37 37 37 37 37 37 37 38 39 40 42
32 30 25 25 31 36 34 40 41 40 32 29 23 30 42 43 41 41 44 46 45 41 39 40 40 39 38 38 37 36 36 35 35 35 35 34 34 34 34 34 35 36 37 38
35 29 25 22 25 30 31 34 39 37 30 31 31 35 37 39 39 41 43 42 41 41 41 39 39 38 38 37 35 35 35 35 34 33 33 31 31 32 32 33 33 35 36 35
33 23 27 28 29 29 30 31 31 32 34 29 36 35 41 41 42 40 43 41 39 41 40 40 40 39 37 36 35 35 34 33 33 31 31 30 31 30 30 30 30 31 31 30
33 22 27 23 30 29 26 30 30 30 31 33 37 36 47 42 41 42 44 41 42 43 42 42 41 39 38 38 37 35 33 32 32 31 30 30 30 30 30 30 29 29 29 28
29 25 21 17 29 27 14 25 30 30 34 34 31 39 47 44 43 43 43 42 43 44 45 43 41 41 41 39 39 35 34 32 30 30 30 29 29 29 28 28 28 28 27 27
27 24 21 8 18 13 25 34 35 32 35 38 39 41 43 44 47 49 47 45 45 47 48 48 47 43 41 40 36 34 31 31 30 30 29 29 29 28 28 27 27 26 26 26
33 26 15 11 9 21 27 32 30 30 31 40 38 40 42 44 44 45 48 49 51 52 52 51 51 46 41 35 34 32 30 30 29 28 28 28 28 27 26 25 24 24 25 25
30 32 25 9 8 5 23 33 37 37 25 37 37 37 38 40 32 40 48 45 47 49 50 45 45 38 34 33 32 31 29 28 28 28 28 28 28 27 25 24 24 25 26 26
22 23 21 19 17 16 31 33 36 20 26 34 36 38 38 34 38 41 34 36 37 36 35 35 34 35 35 31 31 30 28 28 29 27 26 26 26 25 24 24 24 24 24 25
17 12 14 15 17 16 33 30 29 34 35 36 34 34 34 33 32 32 31 31 30 29 28 29 29 28 27 30 31 29 27 28 25 24 24 23 23 24 24 22 22 22 22 20
15 25 20 24 22 33 32 35 37 37 36 33 31 32 32 30 30 28 28 27 27 25 25 25 24 24 24 26 29 26 24 23 22 21 20 20 21 23 22 21 20 19 20 18
23 28 23 22 30 33 33 33 33 33 32 31 31 29 28 27 28 28 26 26 24 23 22 22 22 21 20 22 24 22 21 21 20 19 18 19 19 19 19 20 20 18 18 18
29 25 22 22 30 30 33 32 32 31 29 28 28 27 27 26 26 26 26 24 22 21 20 20 19 18 16 17 17 19 19 19 18 17 17 17 18 17 17 18 18 19 20 20
25 27 24 26 34 30 31 30 28 28 29 28 26 25 26 26 25 24 23 21 19 18 17 16 17 16 14 14 14 16 18 19 18 16 16 16 16 16 16 16 16 21 20 22
MSLP
1015.98 1016.16 1015.76 1015.91 1015.93 1015.26 1015.20 1015.45 1015.40 1015.30 1014.98 1015.23 1015.11 1015.28 1014.47 1014.58 1014.77 1014.85 1015.02 1015.02 1014.77 1014.56 1013.65 1013.58 1013.35 1013.32 1013.59 1013.94 1014.17 1014.28 1014.82 1015.15 1015.85 1016.58 1017.15 1017.60 1017.57 1017.58 1017.76 1017.68 1017.86 1018.12 1018.28 1018.56
1016.74 1016.04 1016.34 1016.30 1016.26 1016.05 1015.71 1015.82 1015.94 1015.62 1015.45 1015.78 1015.72 1015.56 1014.79 1014.53 1014.31 1014.23 1014.18 1014.30 1014.43 1014.24 1013.70 1013.21 1012.98 1013.03 1013.13 1013.27 1013.44 1013.83 1014.12 1014.64 1015.10 1015.61 1016.09 1016.46 1016.71 1016.93 1016.95 1017.18 1017.42 1017.55 1017.79 1018.10
1016.62 1016.21 1015.89 1016.30 1016.35 1016.45 1016.35 1016.24 1016.31 1016.14 1016.17 1016.22 1016.45 1015.51 1015.00 1013.90 1013.72 1013.57 1013.45 1013.32 1013.46 1013.45 1013.27 1012.94 1012.78 1012.66 1012.69 1012.80 1012.86 1013.15 1013.47 1013.89 1014.35 1014.93 1015.66 1016.30 1016.74 1016.93 1017.02 1017.14 1017.17 1016.94 1017.14 1017.41
1016.86 1016.27 1016.27 1016.46 1016.36 1016.36 1016.52 1016.50 1016.69 1016.87 1017.30 1017.62 1017.49 1015.78 1014.70 1013.90 1013.36 1013.09 1012.76 1012.77 1012.63 1012.53 1012.36 1012.28 1012.30 1012.47 1012.49 1012.34 1012.74 1012.92 1013.23 1013.64 1014.10 1014.66 1015.28 1015.66 1015.97 1016.31 1016.24 1016.16 1016.25 1016.30 1016.42 1016.70
1016.16 1016.18 1016.14 1016.34 1016.02 1016.38 1016.23 1016.37 1017.17 1017.74 1018.10 1018.61 1018.36 1018.29 1014.29 1014.01 1013.31 1012.86 1012.31 1011.96 1011.65 1011.20 1011.41 1011.71 1011.89 1011.86 1012.01 1012.32 1012.55 1012.89 1013.24 1013.70 1013.97 1014.35 1014.77 1015.28 1015.64 1015.67 1015.71 1015.98 1016.11 1016.29 1016.42 1016.54
1016.09 1015.85 1015.85 1015.63 1015.72 1015.93 1016.45 1017.18 1017.95 1018.62 1019.29 1019.35 1018.08 1018.21 1013.85 1013.61 1012.65 1012.21 1011.35 1010.92 1010.70 1010.93 1011.29 1011.57 1011.63 1011.96 1012.29 1012.61 1012.89 1013.26 1013.54 1014.10 1014.34 1014.42 1014.69 1015.02 1015.40 1015.61 1015.91 1016.01 1016.22 1016.46 1016.73 1016.95
1016.24 1015.94 1015.68 1015.55 1015.78 1016.09 1016.47 1017.35 1019.22 1020.17 1020.49 1018.94 1018.26 1018.04 1013.11 1012.62 1011.85 1011.12 1010.78 1010.45 1010.35 1010.68 1011.06 1011.30 1011.73 1012.06 1012.49 1012.97 1013.26 1013.58 1013.99 1014.51 1014.68 1014.87 1015.10 1015.28 1015.37 1015.44 1015.52 1015.72 1016.04 1016.65 1016.98 1017.22
1016.04 1016.01 1015.41 1015.06 1015.02 1015.20 1016.05 1016.65 1017.71 1019.00 1019.93 1019.01 1018.71 1016.48 1012.58 1011.50 1010.68 1010.70 1010.43 1010.30 1010.28 1010.78 1010.98 1011.35 1011.64 1012.00 1012.52 1013.18 1013.62 1013.92 1014.37 1014.83 1015.06 1015.21 1015.47 1015.50 1015.55 1015.77 1015.97 1016.09 1016.34 1016.77 1017.12 1017.34
1016.07 1015.58 1014.51 1014.43 1014.48 1014.79 1015.82 1016.07 1016.58 1018.02 1019.47 1019.26 1017.56 1015.13 1012.89 1011.58 1010.94 1010.56 1010.23 1010.11 1010.17 1010.77 1011.22 1011.58 1012.05 1012.42 1012.97 1013.52 1013.91 1014.18 1014.70 1015.22 1015.55 1015.73 1015.85 1016.08 1016.26 1016.46 1016.71 1016.81 1016.90 1017.22 1017.55 1017.85
1016.17 1015.81 1014.78 1014.49 1014.64 1014.52 1014.66 1015.25 1016.52 1017.39 1018.84 1018.69 1016.57 1015.38 1013.17 1011.83 1011.10 1010.46 1010.35 1010.18 1010.33 1010.68 1011.21 1011.86 1012.63 1013.12 1013.58 1013.90 1014.37 1014.85 1015.22 1015.62 1015.99 1016.31 1016.59 1016.89 1016.98 1017.06 1017.24 1017.41 1017.68 1017.91 1018.11 1018.33
1016.60 1016.63 1015.70 1015.02 1014.45 1014.09 1014.76 1014.90 1015.48 1016.28 1017.44 1017.13 1016.23 1013.78 1012.02 1011.22 1010.61 1010.25 1010.16 1010.39 1010.44 1010.96 1011.71 1012.34 1013.29 1013.80 1014.28 1014.71 1015.00 1015.30 1015.67 1016.09 1016.56 1016.78 1017.02 1017.20 1017.43 1017.51 1017.67 1017.93 1018.21 1018.42 1018.63 1018.81
1017.22 1016.59 1016.20 1015.14 1014.41 1014.12 1014.11 1014.00 1014.63 1015.29 1015.79 1015.96 1015.27 1012.91 1011.57 1011.05 1010.61 1010.35 1010.33 1010.35 1010.37 1011.06 1011.90 1012.80 1013.75 1014.37 1014.74 1015.11 1015.54 1015.82 1016.12 1016.38 1016.74 1017.04 1017.31 1017.66 1017.83 1018.01 1018.31 1018.67 1018.87 1018.99 1019.20 1019.36
1018.90 1017.10 1016.46 1016.09 1015.54 1015.01 1015.00 1014.33 1014.43 1014.68 1015.12 1014.89 1014.84 1011.95 1011.22 1010.94 1010.33 1010.57 1010.66 1010.79 1011.02 1011.84 1012.57 1013.07 1013.96 1014.60 1015.05 1015.40 1015.74 1016.07 1016.49 1016.84 1017.12 1017.36 1017.75 1018.12 1018.39 1018.64 1018.86 1019.14 1019.34 1019.50 1019.70 1019.95
1018.62 1018.42 1017.76 1017.15 1016.80 1016.30 1015.54 1015.05 1014.68 1014.74 1014.87 1013.65 1013.15 1011.53 1011.33 1011.16 1011.08 1011.02 1011.09 1011.35 1011.65 1012.33 1013.12 1013.80 1014.23 1014.74 1015.21 1015.63 1015.97 1016.25 1016.51 1016.86 1017.30 1017.62 1018.06 1018.47 1018.63 1018.86 1019.07 1019.31 1019.65 1019.82 1020.11 1020.44
1018.90 1018.85 1018.44 1017.91 1017.87 1017.42 1016.73 1016.03 1015.36 1014.81 1014.16 1013.55 1012.02 1011.04 1010.98 1011.36 1011.43 1011.61 1011.81 1011.96 1012.18 1012.55 1013.05 1013.41 1013.92 1014.40 1014.76 1015.24 1015.69 1016.15 1016.56 1016.93 1017.38 1017.84 1018.22 1018.50 1019.05 1019.20 1019.53 1019.83 1020.11 1020.34 1020.66 1021.04
1018.78 1018.76 1018.78 1018.88 1018.16 1017.83 1017.47 1016.70 1015.67 1014.99 1014.37 1013.59 1012.17 1010.36 1010.42 1010.73 1010.96 1011.36 1011.61 1012.08 1012.25 1012.10 1012.33 1012.55 1012.94 1013.46 1013.92 1014.19 1014.73 1015.53 1016.18 1016.79 1017.34 1017.90 1018.20 1018.59 1019.02 1019.50 1019.87 1020.25 1020.62 1020.89 1021.25 1021.51
1018.96 1019.40 1019.58 1019.19 1018.45 1018.62 1017.90 1015.90 1014.99 1013.93 1013.22 1013.01 1011.95 1010.08 1010.88 1010.39 1010.91 1011.23 1011.35 1011.29 1011.30 1011.08 1011.24 1011.47 1011.77 1012.16 1012.47 1012.90 1013.48 1014.25 1015.31 1016.33 1017.15 1017.70 1018.08 1018.42 1018.87 1019.47 1019.99 1020.49 1020.89 1021.35 1021.77 1022.05
1019.42 1019.75 1019.89 1019.89 1019.37 1018.33 1015.98 1014.76 1014.11 1013.64 1012.51 1011.98 1011.60 1010.68 1010.51 1010.18 1010.16 1010.14 1010.20 1010.30 1010.16 1010.25 1010.11 1009.87 1010.12 1010.57 1011.02 1011.74 1012.72 1013.90 1014.83 1015.83 1016.77 1017.34 1017.84 1018.16 1018.59 1019.22 1019.94 1020.56 1021.15 1021.62 1021.99 1022.41
1018.63 1019.20 1020.13 1020.50 1020.16 1018.06 1016.23 1014.46 1013.75 1013.18 1012.04 1011.76 1011.54 1010.90 1010.66 1010.28 1010.33 1009.53 1009.46 1009.31 1009.11 1008.90 1008.94 1009.06 1009.13 1009.33 1009.90 1010.80 1011.69 1012.92 1014.16 1015.04 1015.84 1016.56 1017.19 1017.85 1018.35 1019.00 1019.70 1020.34 1020.96 1021.62 1022.16 1022.61
1019.03 1019.14 1020.01 1020.53 1020.02 1018.29 1015.65 1013.20 1012.81 1012.69 1012.50 1011.57 1011.74 1011.57 1011.31 1011.09 1010.88 1009.51 1009.28 1009.26 1008.89 1008.57 1008.44 1008.57 1008.54 1008.93 1009.52 1010.20 1011.23 1012.41 1013.36 1014.30 1014.85 1015.56 1016.42 1017.35 1018.11 1018.75 1019.55 1020.22 1020.91 1021.39 1021.89 1022.49
1019.63 1019.26 1019.09 1018.98 1018.63 1017.03 1013.77 1013.25 1012.67 1012.66 1012.56 1011.76 1011.91 1011.88 1011.82 1011.90 1011.52 1010.46 1010.44 1010.37 1010.20 1009.90 1009.46 1009.18 1009.20 1009.02 1008.92 1009.85 1010.79 1011.84 1012.71 1013.28 1014.05 1015.20 1016.26 1017.24 1018.06 1018.70 1019.26 1020.05 1020.72 1021.26 1021.72 1022.33
1019.19 1018.87 1018.70 1018.11 1017.18 1015.47 1012.83 1012.81 1012.60 1012.07 1011.84 1012.02 1012.40 1012.40 1012.20 1011.95 1011.54 1011.26 1011.06 1010.99 1010.88 1010.73 1010.45 1010.38 1010.13 1009.72 1009.92 1010.13 1010.70 1011.51 1012.27 1012.97 1014.08 1015.20 1016.22 1017.09 1017.85 1018.74 1019.48 1020.03 1020.71 1021.34 1021.94 1022.53
1018.17 1017.03 1016.66 1016.60 1015.02 1013.15 1012.57 1012.55 1012.06 1012.04 1012.46 1012.16 1012.63 1012.90 1012.92 1012.42 1011.45 1011.81 1011.69 1011.70 1011.58 1011.37 1011.48 1011.53 1011.51 1010.93 1010.73 1010.98 1011.22 1011.70 1012.30 1013.26 1014.21 1015.04 1016.02 1016.91 1017.82 1018.60 1019.29 1020.14 1020.68 1021.32 1021.91 1022.26
1016.81 1015.89 1015.86 1015.52 1013.72 1012.81 1012.34 1011.95 1011.97 1012.20 1012.41 1012.45 1012.75 1013.08 1013.49 1012.39 1011.87 1011.99 1012.06 1011.99 1011.81 1011.85 1011.95 1012.05 1012.07 1012.32 1011.86 1011.66 1011.81 1012.48 1013.22 1013.63 1014.34 1015.57 1016.37 1017.11 1017.80 1018.70 1019.44 1020.07 1020.64 1021.05 1021.57 1022.05
1015.83 1015.72 1015.03 1014.27 1013.23 1012.86 1012.16 1011.90 1012.00 1012.19 1012.62 1012.86 1012.93 1013.08 1012.66 1012.88 1012.38 1012.34 1012.25 1012.47 1012.18 1012.22 1012.19 1012.45 1012.72 1012.88 1013.40 1012.93 1013.21 1013.09 1013.51 1014.11 1014.75 1015.83 1016.77 1017.62 1018.22 1018.68 1019.42 1020.05 1020.50 1020.91 1021.51 1021.77
1015.16 1014.72 1014.90 1013.70 1012.79 1012.98 1012.38 1012.14 1012.43 1012.71 1012.88 1013.12 1013.40 1013.24 1012.90 1013.25 1012.64 1012.86 1012.64 1012.55 1012.65 1012.48 1012.52 1012.70 1013.13 1013.60 1013.83 1013.86 1014.18 1014.29 1014.06 1013.96 1014.62 1015.67 1016.58 1017.48 1018.38 1019.06 1019.64 1020.26 1020.80 1021.22 1021.65 1022.01
Wind_Speed
1 3 10 8 5 1 6 3 5 2 2 3 7 7 15 8 5 8 9 8 8 10 12 8 8 9 8 7 8 11 11 11 8 4 5 4 6 6 5 6 6 6 5 6
2 8 3 1 2 1 3 4 4 2 1 4 6 8 12 9 7 10 13 9 10 6 7 10 9 8 9 13 14 11 12 11 11 8 6 3 5 4 5 5 6 8 8 7
5 2 8 6 4 7 4 5 4 2 3 0 4 8 7 8 8 9 8 9 7 11 12 10 9 9 8 10 11 12 14 13 12 12 4 3 3 2 3 5 6 8 9 9
6 5 4 3 6 8 12 7 3 1 3 4 2 11 7 7 9 8 13 11 13 14 13 11 9 8 8 8 6 7 7 7 7 8 8 8 8 7 5 5 6 6 9 9
6 5 5 8 6 8 5 7 8 5 3 3 2 4 8 2 6 8 12 16 18 20 16 13 12 9 8 5 6 5 7 7 5 7 7 7 6 5 2 2 4 3 2 3
5 2 5 7 5 12 8 6 7 5 3 7 8 7 6 7 7 6 8 12 15 12 9 8 8 6 4 4 6 6 7 5 4 5 5 7 8 6 4 4 4 3 3 3
5 6 2 4 5 2 4 8 2 3 1 10 2 7 19 4 7 9 10 10 7 7 8 9 10 8 7 7 7 6 7 5 5 6 5 3 4 5 6 5 4 6 4 2
7 4 11 6 6 7 13 11 7 8 6 3 2 12 8 12 11 8 8 9 8 5 6 8 7 7 8 8 7 7 7 6 5 5 5 4 5 3 3 3 4 4 4 4
6 5 1 5 4 9 5 12 5 4 2 2 6 9 9 9 10 8 11 10 13 4 6 7 7 7 7 7 7 7 7 6 5 5 5 6 5 5 5 6 5 5 5 5
1 2 5 6 2 6 7 7 6 2 2 4 5 5 7 5 8 8 8 9 8 4 7 6 5 6 5 6 5 6 6 6 6 6 5 5 5 5 5 5 6 6 6 6
5 3 2 6 10 15 5 6 4 5 6 6 2 8 7 8 7 6 7 5 6 6 4 4 5 4 5 5 6 6 7 7 6 6 5 6 5 6 6 5 6 6 7 7
3 4 9 9 2 2 15 18 18 8 12 8 2 8 4 5 2 2 6 7 5 3 5 6 6 5 6 6 6 6 5 6 6 5 6 6 6 6 6 6 6 6 7 7
5 6 7 1 4 2 5 15 14 17 3 13 6 10 3 8 2 3 6 8 4 1 3 6 6 6 5 5 6 6 5 6 5 6 6 6 6 6 6 6 5 6 7 7
6 3 6 4 2 4 4 7 19 14 12 18 15 20 7 5 4 4 5 4 4 1 2 2 3 5 5 5 6 6 6 6 6 6 6 6 6 6 6 6 5 7 7 8
5 5 4 2 7 2 4 8 6 16 19 11 20 22 15 7 8 5 7 4 1 4 6 8 8 8 7 7 7 6 5 6 6 6 6 6 5 6 6 6 6 6 6 6
1 2 4 4 3 1 7 14 12 9 9 17 23 27 14 4 5 6 9 7 8 9 10 9 10 9 11 13 11 9 8 8 7 7 7 7 7 7 6 6 6 7 7 6
1 1 0 4 3 3 6 10 12 5 7 10 19 26 16 15 10 9 9 8 10 10 10 10 13 15 14 15 15 15 12 9 9 8 8 9 8 8 7 6 7 7 6 6
5 5 2 3 2 4 10 4 7 11 9 12 17 20 21 19 16 17 11 12 15 14 14 15 13 11 13 11 12 10 12 12 11 10 10 10 10 9 8 8 7 7 6 7
10 2 2 2 3 6 10 11 8 7 7 7 12 18 17 16 12 17 14 15 19 19 16 16 14 13 9 13 14 15 14 14 13 13 12 11 11 11 10 10 9 7 8 7
7 10 6 2 4 7 11 8 6 3 7 6 2 9 11 9 8 13 13 8 15 17 16 12 12 6 8 10 14 15 15 15 16 14 13 11 11 11 10 10 9 7 7 8
2 2 11 9 7 8 14 5 4 4 6 4 3 8 10 4 6 10 5 7 7 6 8 8 5 8 10 11 14 15 15 17 13 13 12 11 10 11 11 10 7 8 8 9
7 5 5 3 5 8 6 1 6 5 2 4 4 7 10 9 8 8 8 7 9 8 9 8 6 3 2 9 13 13 14 11 13 13 13 12 11 8 8 10 8 8 8 8
4 8 6 9 8 5 3 6 3 4 8 6 4 6 7 12 9 7 9 6 7 8 5 4 4 2 3 5 7 11 10 14 13 13 13 12 11 9 9 9 9 8 8 7
6 6 5 4 10 16 9 7 5 7 7 4 6 7 7 12 9 12 8 7 5 5 5 3 1 1 2 3 6 7 10 12 13 12 12 11 11 9 8 6 6 7 7 6
6 5 6 6 11 6 12 8 6 3 4 6 7 7 8 8 10 9 10 7 6 5 3 1 2 3 1 4 6 8 10 11 11 11 9 9 7 9 8 6 6 6 5 6
6 8 5 11 11 5 8 2 1 5 6 6 6 8 6 7 9 7 10 5 4 5 4 3 4 4 3 4 4 4 8 12 13 12 9 8 8 6 6 6 6 9 9 11
Wind_Direction
215 153 209 197 229 171 139 178 190 222 270 176 243 237 247 222 212 230 233 230 250 247 255 252 240 226 212 214 203 195 184 193 168 167 178 202 220 213 224 219 216 218 215 203
114 238 176 182 230 318 137 165 200 288 224 172 292 263 256 229 222 210 228 237 227 231 259 251 234 228 213 209 206 197 193 185 189 186 193 173 186 210 219 212 222 220 217 204
191 174 177 170 176 205 203 185 168 144 353 114 330 275 232 252 226 231 236 230 233 223 235 241 250 236 221 218 201 191 192 191 191 191 146 100 91 71 168 215 227 221 209 211
243 250 120 185 221 183 230 164 164 252 72 241 36 278 265 245 240 224 236 236 238 237 237 239 228 231 227 228 199 186 184 180 176 170 183 188 201 200 202 195 207 209 201 211
215 180 168 201 214 169 227 153 190 163 145 18 208 308 263 277 261 247 235 240 241 241 239 232 227 221 229 189 196 178 143 138 147 169 183 194 209 219 201 197 214 208 149 168
219 169 181 199 161 180 146 88 57 55 95 258 206 181 215 199 203 248 244 239 241 235 234 240 233 176 149 117 125 133 126 108 110 131 150 189 207 213 196 203 187 162 131 115
178 235 263 157 125 154 136 133 30 9 3 234 290 190 248 226 239 224 239 268 254 236 220 215 192 174 153 146 140 129 128 115 114 117 115 141 199 212 214 201 163 154 143 119
192 228 184 182 191 169 201 182 159 183 202 233 166 233 249 230 265 252 253 260 287 245 230 220 207 170 150 148 146 133 133 127 115 106 93 79 72 84 85 105 116 107 107 110
176 246 272 159 157 156 187 214 161 107 45 63 217 289 291 257 266 251 251 256 254 261 198 190 169 157 150 144 144 139 127 111 99 94 86 75 78 87 95 84 84 98 96 99
264 268 211 201 125 250 175 142 198 111 139 258 258 269 244 319 272 270 274 258 263 209 188 175 157 145 140 138 124 117 123 128 121 105 95 90 86 83 84 83 87 86 84 93
164 201 309 118 203 200 170 193 190 156 162 196 265 260 220 248 257 263 273 297 269 227 235 150 139 137 125 115 131 134 128 126 118 115 114 106 95 84 75 74 79 86 87 92
286 226 230 222 156 212 229 211 202 197 212 238 281 260 276 194 47 291 313 290 255 201 145 134 144 149 152 153 147 145 139 133 130 124 113 103 95 92 88 84 78 78 89 84
13 243 205 230 341 121 243 229 223 225 46 223 203 253 232 295 9 341 340 348 319 70 149 150 158 184 175 167 162 159 151 143 141 127 123 116 112 105 103 102 100 95 100 96
140 314 22 287 355 338 199 235 225 220 223 233 228 249 237 322 316 357 332 8 22 348 173 203 210 202 198 194 185 179 171 160 148 133 132 132 132 132 126 116 105 106 103 106
184 223 230 230 273 267 305 286 309 246 228 216 236 247 247 236 245 248 267 286 201 234 215 218 219 212 204 200 193 186 177 157 148 144 145 142 133 115 109 104 102 100 98 100
221 273 173 222 192 187 315 288 254 246 281 254 258 263 257 243 260 245 232 231 226 235 229 225 221 207 208 206 199 183 180 170 157 162 156 144 133 129 126 123 118 109 104 101
207 243 113 243 174 143 312 232 234 229 215 250 252 259 278 275 251 248 248 226 234 244 248 231 215 214 215 207 196 192 179 155 164 164 159 155 148 143 137 127 119 116 106 107
219 175 192 246 29 214 237 293 248 217 228 231 252 259 259 263 259 250 235 221 227 236 239 240 237 223 217 201 182 164 162 167 173 171 168 162 155 147 138 129 123 117 115 114
225 133 306 180 198 316 318 272 207 182 269 232 243 263 271 275 275 266 242 240 253 257 253 252 247 226 204 181 174 165 169 173 172 176 173 169 158 149 146 143 141 134 127 121
213 212 199 106 178 217 233 261 205 117 287 340 127 279 284 288 276 270 287 240 246 249 251 241 239 221 174 181 166 168 175 176 183 178 169 159 157 155 154 148 145 140 136 137
115 211 225 230 231 278 258 199 170 115 252 294 281 278 287 273 241 297 341 305 315 300 306 310 256 218 203 159 164 179 175 191 174 155 150 151 151 149 146 141 144 146 145 141
178 168 215 195 221 256 195 183 171 193 278 245 248 272 281 269 284 288 297 299 309 308 325 321 280 254 151 165 171 178 186 159 147 144 146 147 144 147 145 141 139 139 139 135
266 192 206 186 218 250 202 237 233 154 256 264 234 261 276 284 294 294 287 283 290 307 316 316 264 152 135 169 185 169 153 145 141 141 145 142 140 144 146 150 148 144 149 149
261 191 213 72 250 254 258 260 229 204 223 256 255 264 262 278 293 289 284 281 264 284 297 300 190 237 124 109 118 125 143 141 139 142 145 145 144 141 144 145 152 152 158 159
223 154 211 258 266 312 275 257 262 228 233 257 269 252 258 264 276 269 287 261 240 237 248 205 178 145 123 101 118 139 141 141 135 137 138 143 144 149 145 145 153 154 155 166
177 233 209 251 253 228 277 263 260 253 255 278 275 292 273 262 283 289 281 278 237 212 178 157 155 145 135 101 119 130 151 152 148 148 151 153 151 150 145 144 135 144 151 157